Weather History for KFTG - November, 2012

Change the Weather History Date:

Saturday, November 10, 2012

  Actual Average (KDEN) Record (KDEN)
Temperature  
Mean Temperature 38 °F 41 °F  
Max Temperature 55 °F 55 °F 78 °F (1973)
Min Temperature 21 °F 27 °F -8 °F (1950)
Degree Days  
Heating Degree Days 27 24  
Month to date heating degree days 222  
Since 1 July heating degree days 803  
Cooling Degree Days 0 0  
Month to date cooling degree days 0  
Year to date cooling degree days 769  
Moisture  
Dew Point 29 °F    
Average Humidity 70    
Maximum Humidity 100    
Minimum Humidity 35    
Precipitation  
Precipitation 0.00 in 0.02 in 0.54 in (1975)
Month to date precipitation 0.26  
Year to date precipitation 13.60  
Snow  
Snow 0.00 in - - ()
Month to date snowfall  
Since 1 July snowfall  
Since 1 September snowfall  
Snow Depth -    
Sea Level Pressure  
Sea Level Pressure 29.58 in    
Wind  
Wind Speed 17 mph (North)    
Max Wind Speed 30 mph    
Max Gust Speed 43 mph    
Visibility 7 miles    
Events Snow    
T = Trace of Precipitation, MM = Missing Value Source: NWS Daily Summary

Daily Weather History Graph

Daily Weather History Graph

Search for Another Location

Airport or City:

Trip Planner

Search our weather history database for the weather conditions in past years. The results will help you decide how hot, cold, wet, or windy it might be!

Date:

Astronomy

Nov. 10, 2012 Rise Set
Actual Time 6:37 AM MST 4:46 PM MST
Civil Twilight 6:09 AM MST 5:14 PM MST
Nautical Twilight 5:36 AM MST 5:47 PM MST
Astronomical Twilight 5:04 AM MST 6:18 PM MST
Moon 2:45 AM MST (11/10) 2:34 PM MST (11/10)
Length of Visible Light 11h 05m
Length of Day
10h 08m
Waning Crescent, 14% of the Moon is Illuminated
Nov 10
Waning Crescent
Nov 13
New
Nov 20
First Quarter
Nov 28
Full
Dec 6
Last Quarter

Hourly Weather History & Observations

Time (MST) Temp. Windchill Dew Point Humidity Pressure Visibility Wind Dir Wind Speed Gust Speed Precip Events Conditions
12:19 AM 55.4 °F - 28.4 °F 36% 29.54 in 10.0 mi SSW 29.9 mph 42.6 mph N/A   Clear
12:39 AM 55.4 °F - 30.2 °F 38% 29.54 in 10.0 mi SW 19.6 mph 28.8 mph N/A   Clear
12:59 AM 53.6 °F - 28.4 °F 38% 29.54 in 10.0 mi SSW 20.7 mph 24.2 mph N/A   Clear
1:19 AM 53.6 °F - 26.6 °F 35% 29.54 in 10.0 mi SSW 16.1 mph 25.3 mph N/A   Clear
1:39 AM 51.8 °F - 28.4 °F 41% 29.54 in 10.0 mi SSW 17.3 mph - N/A   Clear
1:59 AM 51.8 °F - 26.6 °F 38% 29.53 in 10.0 mi SW 11.5 mph - N/A   Clear
2:19 AM 48.2 °F - 26.6 °F 43% 29.53 in 10.0 mi South 8.1 mph - N/A   Clear
2:39 AM 50.0 °F - 26.6 °F 40% 29.51 in 10.0 mi South 12.7 mph - N/A   Clear
2:58 AM 51.8 °F - 24.8 °F 35% 29.51 in 10.0 mi SSW 23.0 mph 26.5 mph N/A   Clear
3:19 AM 53.6 °F - 26.6 °F 35% 29.49 in 10.0 mi SSW 25.3 mph 31.1 mph N/A   Clear
3:39 AM 53.6 °F - 28.4 °F 38% 29.49 in 10.0 mi SSW 24.2 mph 33.4 mph N/A   Clear
3:59 AM 51.8 °F - 28.4 °F 41% 29.49 in 10.0 mi SSW 25.3 mph - N/A   Clear
4:19 AM 51.8 °F - 28.4 °F 41% 29.49 in 10.0 mi South 15.0 mph 21.9 mph N/A   Clear
4:39 AM 50.0 °F - 28.4 °F 43% 29.47 in 10.0 mi South 17.3 mph - N/A   Clear
4:59 AM 50.0 °F - 30.2 °F 47% 29.47 in 10.0 mi South 12.7 mph - N/A   Clear
5:39 AM 50.0 °F - 32.0 °F 50% 29.44 in 10.0 mi South 23.0 mph 28.8 mph N/A   Clear
5:59 AM 50.0 °F - 32.0 °F 50% 29.44 in 10.0 mi South 19.6 mph 27.6 mph N/A   Clear
6:19 AM 50.0 °F - 32.0 °F 50% 29.44 in 10.0 mi South 16.1 mph 21.9 mph N/A   Clear
6:39 AM 48.2 °F - 32.0 °F 54% 29.43 in 10.0 mi South 18.4 mph - N/A   Clear
6:54 AM 50.0 °F - 32.0 °F 50% 29.43 in 10.0 mi South 18.4 mph 24.2 mph N/A   Clear
7:47 AM 53.6 °F - 32.0 °F 44% 29.46 in 50.0 mi SW 12.7 mph - N/A   Mostly Cloudy
8:47 AM 39.2 °F 30.5 °F 32.0 °F 75% 29.51 in 30.0 mi NNE 16.1 mph - N/A   Mostly Cloudy
9:47 AM 37.4 °F 30.8 °F 32.0 °F 81% 29.55 in 10.0 mi NNW 9.2 mph - N/A   Overcast
10:00 AM 37.4 °F 30.3 °F 33.8 °F 87% 29.57 in 5.0 mi NW 10.4 mph - N/A Snow Light Snow
10:20 AM 37.4 °F 28.9 °F 35.6 °F 93% 29.53 in 0.5 mi North 13.8 mph - N/A Snow Heavy Snow
10:55 AM 39.2 °F 31.2 °F 37.4 °F 93% 29.54 in 5.0 mi NNE 13.8 mph - N/A   Overcast
11:47 AM 39.2 °F 29.0 °F 37.4 °F 93% 29.51 in 6.0 mi NE 21.9 mph - N/A   Overcast
12:50 PM 37.4 °F 34.9 °F 35.6 °F 93% 29.56 in 2.0 mi North 3.5 mph - N/A Snow Snow
12:58 PM 37.4 °F 33.8 °F 35.6 °F 93% 29.57 in 0.5 mi NW 4.6 mph - N/A Snow Snow
1:25 PM 35.6 °F 31.7 °F 33.8 °F 93% 29.56 in 0.5 mi North 4.6 mph - N/A Snow Snow
1:57 PM 35.6 °F 28.6 °F 33.8 °F 93% 29.54 in 0.5 mi ENE 9.2 mph - N/A Snow Snow
2:24 PM 37.4 °F 29.8 °F 37.4 °F 100% 29.52 in 1.5 mi ENE 11.5 mph - N/A   Overcast
2:50 PM 37.4 °F 30.8 °F 37.4 °F 100% 29.55 in 7.0 mi NE 9.2 mph - N/A   Overcast
3:47 PM 37.4 °F 28.9 °F 35.6 °F 93% 29.59 in 7.0 mi NNE 13.8 mph - N/A   Overcast
4:50 PM 33.8 °F 25.3 °F 32.0 °F 93% 29.63 in 5.0 mi NE 11.5 mph - N/A   Overcast
5:14 PM 32.0 °F 19.8 °F 32.0 °F 100% 29.65 in 2.0 mi North 20.7 mph 24.2 mph N/A Snow Light Snow
5:58 PM 28.4 °F 18.5 °F 28.4 °F 100% 29.68 in 2.0 mi North 11.5 mph - N/A Snow Light Snow
6:48 PM 28.4 °F 17.0 °F 26.6 °F 93% 29.71 in 2.0 mi ENE 15.0 mph 25.3 mph N/A Snow Light Snow
7:50 PM 24.8 °F 11.1 °F 23.0 °F 93% 29.76 in 2.0 mi North 18.4 mph - N/A Snow Light Snow
9:18 PM 23.0 °F 11.7 °F 21.2 °F 93% 29.81 in - NNE 11.5 mph - N/A   Overcast
9:39 PM 23.0 °F 11.7 °F 21.2 °F 93% 29.81 in - NNE 11.5 mph - N/A   Unknown
9:59 PM 23.0 °F 13.9 °F 21.2 °F 93% 29.82 in - North 8.1 mph - N/A   Unknown
10:39 PM 21.2 °F 11.7 °F 21.2 °F 100% 29.83 in 10.0 mi North 8.1 mph - N/A   Overcast
10:58 PM 21.2 °F 11.7 °F 21.2 °F 100% 29.83 in 10.0 mi North 8.1 mph - N/A   Overcast
11:19 PM 21.2 °F 11.7 °F 19.4 °F 93% 29.83 in 10.0 mi NNE 8.1 mph - N/A   Overcast
11:38 PM 21.2 °F 11.7 °F 19.4 °F 93% 29.83 in 10.0 mi North 8.1 mph - N/A   Overcast
11:59 PM 21.2 °F 16.4 °F 19.4 °F 93% 29.83 in 10.0 mi North 3.5 mph - N/A   Overcast